"read_dt","SO2 (ppb)","flags","PMT voltage (V)","lamp voltage (V)","lamp intensity (Hz)","internal temp (C)","react chamber temp (C)","sample flow (l/min)","pres (mmHg)","SO2 bkg (ppb)","SO2 coefficient"
2015-10-16 00:00:00,1736E-3,5C000400,-0724,0828,12218,030.5,045.5,0.251,757.9,01.16,0.508
2015-10-16 00:01:00,1777E-3,5C000400,-0724,0828,12260,030.5,045.5,0.251,757.9,01.16,0.508
2015-10-16 00:02:00,1859E-3,5C000400,-0724,0828,12098,030.5,045.5,0.252,757.9,01.16,0.508
2015-10-16 00:03:00,1827E-3,5C000400,-0724,0828,12172,030.5,045.5,0.252,757.9,01.16,0.508
2015-10-16 00:04:00,1848E-3,5C000400,-0724,0829,12226,030.5,045.5,0.252,757.9,01.16,0.508
2015-10-16 00:05:00,1775E-3,5C000400,-0724,0828,12265,030.5,045.5,0.252,757.9,01.16,0.508
2015-10-16 00:06:00,1806E-3,5C000400,-0724,0828,12119,030.5,045.5,0.252,757.8,01.16,0.508
2015-10-16 00:07:00,1835E-3,5C000400,-0724,0828,12090,030.5,045.5,0.251,757.8,01.16,0.508
2015-10-16 00:08:00,1813E-3,5C000400,-0724,0829,12279,030.5,045.5,0.251,757.8,01.16,0.508
2015-10-16 00:09:00,1918E-3,5C000400,-0724,0828,12128,030.5,045.5,0.252,757.8,01.16,0.508
2015-10-16 00:10:00,1843E-3,5C000400,-0724,0828,12173,030.5,045.5,0.252,757.8,01.16,0.508
2015-10-16 00:11:00,1839E-3,5C000400,-0724,0828,12204,030.5,045.5,0.252,757.8,01.16,0.508
2015-10-16 00:12:00,1931E-3,5C000400,-0724,0828,12117,030.5,045.5,0.252,757.8,01.16,0.508
2015-10-16 00:13:00,1772E-3,5C000400,-0724,0828,12289,030.5,045.5,0.252,757.8,01.16,0.508
2015-10-16 00:14:00,1818E-3,5C000400,-0724,0829,12071,030.5,045.5,0.252,757.8,01.16,0.508
2015-10-16 00:15:00,1892E-3,5C000400,-0724,0829,12196,030.5,045.5,0.251,757.8,01.16,0.508
2015-10-16 00:16:00,1733E-3,5C000400,-0724,0828,12111,030.5,045.5,0.252,757.8,01.16,0.508
2015-10-16 00:17:00,1782E-3,5C000400,-0724,0828,12229,030.5,045.5,0.252,757.8,01.16,0.508
2015-10-16 00:18:00,1870E-3,5C000400,-0724,0829,12261,030.5,045.5,0.252,757.8,01.16,0.508
2015-10-16 00:19:00,1824E-3,5C000400,-0724,0829,12165,030.5,045.5,0.252,757.8,01.16,0.508
2015-10-16 00:20:00,1720E-3,5C000400,-0724,0829,12149,030.5,045.5,0.252,757.8,01.16,0.508
2015-10-16 00:21:00,1783E-3,5C000400,-0724,0827,12230,030.6,045.5,0.252,757.8,01.16,0.508
2015-10-16 00:22:00,1848E-3,5C000400,-0724,0828,12199,030.5,045.5,0.251,757.8,01.16,0.508
2015-10-16 00:23:00,1818E-3,5C000400,-0724,0828,12194,030.5,045.5,0.252,757.8,01.16,0.508
2015-10-16 00:24:00,1859E-3,5C000400,-0724,0828,12270,030.6,045.5,0.252,757.8,01.16,0.508
2015-10-16 00:25:00,1792E-3,5C000400,-0724,0828,12191,030.6,045.5,0.252,757.8,01.16,0.508
2015-10-16 00:26:00,1730E-3,5C000400,-0724,0828,12240,030.6,045.5,0.252,757.8,01.16,0.508
2015-10-16 00:27:00,1759E-3,5C000400,-0724,0828,12335,030.6,045.5,0.252,757.8,01.16,0.508
2015-10-16 00:28:00,1889E-3,5C000400,-0724,0829,12251,030.6,045.5,0.252,757.8,01.16,0.508
2015-10-16 00:29:00,1759E-3,5C000400,-0724,0829,12251,030.6,045.5,0.251,757.8,01.16,0.508
2015-10-16 00:30:00,1720E-3,5C000400,-0724,0828,12230,030.6,045.5,0.251,757.8,01.16,0.508
2015-10-16 00:31:00,1800E-3,5C000400,-0724,0828,12055,030.5,045.5,0.252,757.8,01.16,0.508
2015-10-16 00:32:00,1701E-3,5C000400,-0724,0829,12272,030.6,045.5,0.252,757.8,01.16,0.508
2015-10-16 00:33:00,1773E-3,5C000400,-0724,0828,12078,030.6,045.5,0.252,757.7,01.16,0.508
2015-10-16 00:34:00,1833E-3,5C000400,-0724,0828,12245,030.6,045.5,0.252,757.7,01.16,0.508
2015-10-16 00:35:00,1921E-3,5C000400,-0724,0829,12205,030.6,045.5,0.252,757.8,01.16,0.508
2015-10-16 00:36:00,1829E-3,5C000400,-0724,0828,12227,030.6,045.5,0.251,757.8,01.16,0.508
2015-10-16 00:37:00,1793E-3,5C000400,-0724,0828,12265,030.6,045.5,0.252,757.7,01.16,0.508
2015-10-16 00:38:00,1870E-3,5C000400,-0724,0828,12327,030.6,045.5,0.252,757.7,01.16,0.508
2015-10-16 00:39:00,1818E-3,5C000400,-0724,0828,12132,030.6,045.5,0.252,757.7,01.16,0.508
2015-10-16 00:40:00,1873E-3,5C000400,-0724,0828,12121,030.6,045.5,0.252,757.7,01.16,0.508
2015-10-16 00:41:00,1922E-3,5C000400,-0724,0827,12257,030.6,045.5,0.252,757.8,01.16,0.508
2015-10-16 00:42:00,1896E-3,5C000400,-0724,0828,12291,030.6,045.5,0.251,757.8,01.16,0.508
2015-10-16 00:43:00,1946E-3,5C000400,-0724,0828,12275,030.6,045.5,0.251,757.8,01.16,0.508
2015-10-16 00:44:00,1900E-3,5C000400,-0724,0829,12169,030.6,045.5,0.252,757.8,01.16,0.508
2015-10-16 00:45:00,1782E-3,5C000400,-0724,0828,12050,030.6,045.5,0.252,757.8,01.16,0.508
2015-10-16 00:46:00,1846E-3,5C000400,-0724,0827,12169,030.6,045.5,0.252,757.8,01.16,0.508
2015-10-16 00:47:00,1716E-3,5C000400,-0724,0828,12243,030.6,045.5,0.252,757.8,01.16,0.508
2015-10-16 00:48:00,1899E-3,5C000400,-0724,0828,12077,030.6,045.5,0.252,757.8,01.16,0.508
2015-10-16 00:49:00,1901E-3,5C000400,-0724,0828,12036,030.6,045.5,0.252,757.8,01.16,0.508
2015-10-16 00:50:00,1787E-3,5C000400,-0724,0827,12262,030.6,045.5,0.252,757.8,01.16,0.508
2015-10-16 00:51:00,1862E-3,5C000400,-0724,0827,12286,030.6,045.5,0.251,757.8,01.16,0.508
2015-10-16 00:52:00,1827E-3,5C000400,-0724,0828,12291,030.6,045.5,0.251,757.8,01.16,0.508
2015-10-16 00:53:00,1837E-3,5C000400,-0724,0828,12292,030.6,045.5,0.252,757.8,01.16,0.508
2015-10-16 00:54:00,1835E-3,5C000400,-0724,0827,12276,030.6,045.5,0.252,757.8,01.16,0.508
2015-10-16 00:55:00,1856E-3,5C000400,-0724,0827,12314,030.6,045.5,0.252,757.8,01.16,0.508
2015-10-16 00:56:00,1819E-3,5C000400,-0724,0827,12245,030.6,045.5,0.252,757.8,01.16,0.508
2015-10-16 00:57:00,1943E-3,5C000400,-0724,0827,12201,030.6,045.5,0.252,757.8,01.16,0.508
2015-10-16 00:58:00,1887E-3,5C000400,-0724,0828,12149,030.7,045.5,0.252,757.8,01.16,0.508
2015-10-16 00:59:00,1910E-3,5C000400,-0724,0827,12127,030.7,045.5,0.252,757.8,01.16,0.508
2015-10-16 01:00:00,1733E-3,5C000400,-0724,0827,12242,030.6,045.5,0.252,757.8,01.16,0.508
2015-10-16 01:01:00,1754E-3,5C000400,-0724,0828,12105,030.7,045.5,0.252,757.8,01.16,0.508
2015-10-16 01:02:00,1794E-3,5C000400,-0724,0827,12303,030.7,045.5,0.251,757.9,01.16,0.508
2015-10-16 01:03:00,1867E-3,5C000400,-0724,0827,12225,030.6,045.5,0.251,757.9,01.16,0.508
2015-10-16 01:04:00,1959E-3,5C000400,-0724,0827,12301,030.6,045.5,0.251,757.9,01.16,0.508
2015-10-16 01:05:00,1992E-3,5C000400,-0724,0827,12372,030.7,045.5,0.252,757.9,01.16,0.508
2015-10-16 01:06:00,1889E-3,5C000400,-0724,0827,12277,030.6,045.5,0.252,757.8,01.16,0.508
2015-10-16 01:07:00,1942E-3,5C000400,-0724,0828,12186,030.7,045.5,0.252,757.9,01.16,0.508
2015-10-16 01:08:00,1914E-3,5C000400,-0724,0828,12396,030.7,045.5,0.251,757.9,01.16,0.508
2015-10-16 01:09:00,1760E-3,5C000400,-0724,0828,12244,030.7,045.5,0.251,757.8,01.16,0.508
2015-10-16 01:10:00,1844E-3,5C000400,-0724,0828,12294,030.7,045.5,0.251,757.9,01.16,0.508
2015-10-16 01:11:00,1801E-3,5C000400,-0724,0827,12222,030.7,045.5,0.252,757.8,01.16,0.508
2015-10-16 01:12:00,1859E-3,5C000400,-0724,0828,12337,030.7,045.5,0.252,757.8,01.16,0.508
2015-10-16 01:13:00,1768E-3,5C000400,-0724,0828,12132,030.7,045.5,0.252,757.8,01.16,0.508
2015-10-16 01:14:00,1791E-3,5C000400,-0724,0828,12267,030.7,045.5,0.251,757.8,01.16,0.508
2015-10-16 01:15:00,1922E-3,5C000400,-0724,0828,12300,030.7,045.5,0.251,757.8,01.16,0.508
2015-10-16 01:16:00,1838E-3,5C000400,-0724,0828,12271,030.7,045.5,0.251,757.8,01.16,0.508
2015-10-16 01:17:00,1883E-3,5C000400,-0724,0828,12198,030.7,045.5,0.252,757.8,01.16,0.508
2015-10-16 01:18:00,1742E-3,5C000400,-0724,0827,12284,030.7,045.5,0.252,757.8,01.16,0.508
2015-10-16 01:19:00,1900E-3,5C000400,-0724,0827,12125,030.7,045.5,0.251,757.8,01.16,0.508
2015-10-16 01:20:00,1873E-3,5C000400,-0724,0827,12379,030.7,045.5,0.251,757.8,01.16,0.508
2015-10-16 01:21:00,1892E-3,5C000400,-0724,0827,12227,030.7,045.5,0.251,757.8,01.16,0.508
2015-10-16 01:22:00,1875E-3,5C000400,-0724,0828,12305,030.7,045.5,0.251,757.8,01.16,0.508
2015-10-16 01:23:00,1856E-3,5C000400,-0724,0827,12298,030.7,045.5,0.251,757.8,01.16,0.508
2015-10-16 01:24:00,1931E-3,5C000400,-0724,0829,12265,030.7,045.5,0.252,757.8,01.16,0.508
2015-10-16 01:25:00,1879E-3,5C000400,-0724,0826,12267,030.7,045.5,0.251,757.8,01.16,0.508
2015-10-16 01:26:00,1791E-3,5C000400,-0724,0828,12120,030.8,045.5,0.251,757.8,01.16,0.508
2015-10-16 01:27:00,1815E-3,5C000400,-0724,0827,12100,030.8,045.5,0.251,757.8,01.16,0.508
2015-10-16 01:28:00,1826E-3,5C000400,-0724,0828,12231,030.8,045.5,0.251,757.8,01.16,0.508
2015-10-16 01:29:00,1878E-3,5C000400,-0724,0827,12258,030.7,045.5,0.251,757.8,01.16,0.508
2015-10-16 01:30:00,1798E-3,5C000400,-0724,0828,12155,030.7,045.5,0.252,757.8,01.16,0.508
2015-10-16 01:31:00,1757E-3,5C000400,-0724,0828,11998,030.8,045.5,0.251,757.8,01.16,0.508
2015-10-16 01:32:00,1889E-3,5C000400,-0724,0827,12331,030.8,045.5,0.251,757.8,01.16,0.508
2015-10-16 01:33:00,1928E-3,5C000400,-0724,0828,12237,030.8,045.5,0.251,757.8,01.16,0.508
2015-10-16 01:34:00,1702E-3,5C000400,-0724,0827,12122,030.8,045.5,0.251,757.8,01.16,0.508
2015-10-16 01:35:00,1762E-3,5C000400,-0724,0827,12037,030.8,045.5,0.251,757.8,01.16,0.508
2015-10-16 01:36:00,1811E-3,5C000400,-0724,0828,12202,030.8,045.5,0.252,757.8,01.16,0.508
2015-10-16 01:37:00,1903E-3,5C000400,-0724,0828,12160,030.8,045.5,0.251,757.8,01.16,0.508
2015-10-16 01:38:00,1895E-3,5C000400,-0724,0827,12214,030.8,045.5,0.251,757.7,01.16,0.508
2015-10-16 01:39:00,1957E-3,5C000400,-0724,0827,12174,030.8,045.5,0.251,757.7,01.16,0.508
2015-10-16 01:40:00,1791E-3,5C000400,-0724,0827,12255,030.8,045.5,0.251,757.7,01.16,0.508
2015-10-16 01:41:00,1866E-3,5C000400,-0724,0827,12229,030.8,045.5,0.251,757.7,01.16,0.508
2015-10-16 01:42:00,1744E-3,5C000400,-0724,0828,12091,030.8,045.5,0.252,757.7,01.16,0.508
2015-10-16 01:43:00,1825E-3,5C000400,-0724,0828,12106,030.8,045.5,0.251,757.7,01.16,0.508
2015-10-16 01:44:00,1973E-3,5C000400,-0724,0829,12282,030.8,045.5,0.251,757.7,01.16,0.508
2015-10-16 01:45:00,1876E-3,5C000400,-0724,0828,12302,030.8,045.5,0.251,757.7,01.16,0.508
2015-10-16 01:46:00,1823E-3,5C000400,-0724,0827,12226,030.8,045.5,0.251,757.7,01.16,0.508
2015-10-16 01:47:00,1888E-3,5C000400,-0724,0827,12325,030.9,045.5,0.251,757.7,01.16,0.508
2015-10-16 01:48:00,1866E-3,5C000400,-0724,0828,12362,030.9,045.5,0.251,757.6,01.16,0.508
2015-10-16 01:49:00,1922E-3,5C000400,-0724,0828,12295,030.9,045.5,0.251,757.7,01.16,0.508
2015-10-16 01:50:00,1891E-3,5C000400,-0724,0827,12374,030.9,045.5,0.251,757.7,01.16,0.508
2015-10-16 01:51:00,1756E-3,5C000400,-0724,0828,12346,030.9,045.5,0.251,757.7,01.16,0.508
2015-10-16 01:52:00,1853E-3,5C000400,-0724,0827,12307,030.9,045.5,0.251,757.6,01.16,0.508
2015-10-16 01:53:00,1657E-3,5C000400,-0724,0828,12285,030.9,045.5,0.251,757.7,01.16,0.508
2015-10-16 01:54:00,1975E-3,5C000400,-0724,0827,12174,030.9,045.5,0.251,757.7,01.16,0.508
2015-10-16 01:55:00,1948E-3,5C000400,-0724,0827,12146,030.9,045.5,0.251,757.6,01.16,0.508
2015-10-16 01:56:00,1864E-3,5C000400,-0724,0828,12373,030.9,045.5,0.251,757.6,01.16,0.508
2015-10-16 01:57:00,1950E-3,5C000400,-0724,0828,12158,030.9,045.5,0.252,757.5,01.16,0.508
2015-10-16 01:58:00,1871E-3,5C000400,-0724,0828,12294,030.9,045.5,0.252,757.5,01.16,0.508
2015-10-16 01:59:00,1941E-3,5C000400,-0724,0828,12312,030.9,045.5,0.251,757.5,01.16,0.508
2015-10-16 02:00:00,1788E-3,5C000400,-0724,0828,12150,030.9,045.5,0.251,757.6,01.16,0.508
2015-10-16 02:01:00,1908E-3,5C000400,-0724,0828,12174,030.9,045.5,0.251,757.6,01.16,0.508
2015-10-16 02:02:00,1822E-3,5C000400,-0724,0827,12242,030.9,045.5,0.251,757.6,01.16,0.508
2015-10-16 02:03:00,1853E-3,5C000400,-0724,0828,12142,030.9,045.5,0.251,757.6,01.16,0.508
2015-10-16 02:04:00,1810E-3,5C000400,-0724,0828,12212,030.9,045.5,0.251,757.6,01.16,0.508
2015-10-16 02:05:00,1835E-3,5C000400,-0724,0827,12134,030.9,045.5,0.251,757.6,01.16,0.508
2015-10-16 02:06:00,1905E-3,5C000400,-0724,0827,12283,031.0,045.5,0.251,757.6,01.16,0.508
2015-10-16 02:07:00,1813E-3,5C000400,-0724,0828,12122,030.9,045.5,0.251,757.6,01.16,0.508
2015-10-16 02:08:00,1893E-3,5C000400,-0724,0828,12157,031.0,045.5,0.251,757.6,01.16,0.508
2015-10-16 02:09:00,1859E-3,5C000400,-0724,0828,12213,030.9,045.5,0.251,757.6,01.16,0.508
2015-10-16 02:10:00,1806E-3,5C000400,-0724,0828,12155,030.9,045.5,0.251,757.6,01.16,0.508
2015-10-16 02:11:00,1869E-3,5C000400,-0724,0828,12067,030.9,045.5,0.251,757.6,01.16,0.508
2015-10-16 02:12:00,1932E-3,5C000400,-0724,0828,12279,030.9,045.5,0.251,757.6,01.16,0.508
2015-10-16 02:13:00,1747E-3,5C000400,-0724,0828,12254,031.0,045.5,0.251,757.6,01.16,0.508
2015-10-16 02:14:00,1780E-3,5C000400,-0724,0828,12266,031.0,045.5,0.251,757.6,01.16,0.508
2015-10-16 02:15:00,1987E-3,5C000400,-0724,0828,12386,030.9,045.5,0.251,757.6,01.16,0.508
2015-10-16 02:16:00,1822E-3,5C000400,-0724,0827,12269,031.0,045.5,0.251,757.6,01.16,0.508
2015-10-16 02:17:00,1810E-3,5C000400,-0724,0827,12387,031.0,045.5,0.251,757.6,01.16,0.508
2015-10-16 02:18:00,1747E-3,5C000400,-0724,0826,11982,031.0,045.5,0.251,757.6,01.16,0.508
2015-10-16 02:19:00,1959E-3,5C000400,-0724,0828,12171,031.0,045.5,0.251,757.6,01.16,0.508
2015-10-16 02:20:00,1786E-3,5C000400,-0724,0827,12064,030.9,045.5,0.251,757.6,01.16,0.508
2015-10-16 02:21:00,1893E-3,5C000400,-0724,0827,12153,030.9,045.5,0.251,757.5,01.16,0.508
2015-10-16 02:22:00,1871E-3,5C000400,-0724,0827,12462,030.8,045.5,0.251,757.6,01.16,0.508
2015-10-16 02:23:00,1908E-3,5C000400,-0724,0828,12138,030.6,045.5,0.251,757.6,01.16,0.508
2015-10-16 02:24:00,1915E-3,5C000400,-0724,0827,12206,030.4,045.5,0.251,757.6,01.16,0.508
2015-10-16 02:25:00,1717E-3,5C000400,-0724,0828,12227,030.2,045.5,0.251,757.6,01.16,0.508
2015-10-16 02:26:00,1881E-3,5C000400,-0724,0827,12272,030.1,045.5,0.252,757.6,01.16,0.508
2015-10-16 02:27:00,1903E-3,5C000400,-0724,0827,12299,029.9,045.5,0.251,757.6,01.16,0.508
2015-10-16 02:28:00,1864E-3,5C000400,-0724,0828,12170,029.9,045.5,0.252,757.6,01.16,0.508
2015-10-16 02:29:00,1799E-3,5C000400,-0724,0828,12350,029.9,045.5,0.252,757.6,01.16,0.508
2015-10-16 02:30:00,1866E-3,5C000400,-0724,0827,12186,030.0,045.5,0.252,757.6,01.16,0.508
2015-10-16 02:31:00,1926E-3,5C000400,-0724,0828,12160,030.0,045.5,0.252,757.6,01.16,0.508
2015-10-16 02:32:00,1788E-3,5C000400,-0724,0829,12201,030.1,045.5,0.252,757.5,01.16,0.508
2015-10-16 02:33:00,1849E-3,5C000400,-0724,0827,12234,030.1,045.5,0.252,757.5,01.16,0.508
2015-10-16 02:34:00,1882E-3,5C000400,-0724,0827,12264,030.1,045.5,0.252,757.5,01.16,0.508
2015-10-16 02:35:00,1774E-3,5C000400,-0724,0828,12267,030.1,045.5,0.252,757.5,01.16,0.508
2015-10-16 02:36:00,1770E-3,5C000400,-0724,0828,12183,030.2,045.5,0.252,757.5,01.16,0.508
2015-10-16 02:37:00,1861E-3,5C000400,-0724,0828,12171,030.2,045.5,0.252,757.5,01.16,0.508
2015-10-16 02:38:00,1765E-3,5C000400,-0724,0828,12245,030.2,045.5,0.252,757.5,01.16,0.508
2015-10-16 02:39:00,1758E-3,5C000400,-0724,0828,12177,030.3,045.5,0.252,757.5,01.16,0.508
2015-10-16 02:40:00,1797E-3,5C000400,-0724,0828,12181,030.3,045.5,0.252,757.5,01.16,0.508
2015-10-16 02:41:00,1727E-3,5C000400,-0724,0828,12120,030.3,045.5,0.252,757.5,01.16,0.508
2015-10-16 02:42:00,1849E-3,5C000400,-0724,0828,12112,030.3,045.5,0.252,757.5,01.16,0.508
2015-10-16 02:43:00,1780E-3,5C000400,-0724,0828,12148,030.4,045.5,0.252,757.5,01.16,0.508
2015-10-16 02:44:00,1889E-3,5C000400,-0724,0828,12238,030.4,045.5,0.252,757.5,01.16,0.508
2015-10-16 02:45:00,1885E-3,5C000400,-0724,0829,12226,030.4,045.5,0.252,757.5,01.16,0.508
2015-10-16 02:46:00,1906E-3,5C000400,-0724,0827,12333,030.4,045.5,0.252,757.5,01.16,0.508
2015-10-16 02:47:00,1894E-3,5C000400,-0724,0829,12347,030.5,045.5,0.252,757.5,01.16,0.508
2015-10-16 02:48:00,1822E-3,5C000400,-0724,0828,12263,030.5,045.5,0.252,757.5,01.16,0.508
2015-10-16 02:49:00,1812E-3,5C000400,-0724,0827,12152,030.5,045.5,0.252,757.5,01.16,0.508
2015-10-16 02:50:00,1933E-3,5C000400,-0724,0828,12282,030.5,045.5,0.252,757.5,01.16,0.508
2015-10-16 02:51:00,1916E-3,5C000400,-0724,0829,12275,030.5,045.5,0.252,757.5,01.16,0.508
2015-10-16 02:52:00,1838E-3,5C000400,-0724,0828,12247,030.6,045.5,0.252,757.5,01.16,0.508
2015-10-16 02:53:00,1792E-3,5C000400,-0724,0828,12260,030.6,045.5,0.252,757.5,01.16,0.508
2015-10-16 02:54:00,1925E-3,5C000400,-0724,0827,12178,030.6,045.5,0.252,757.5,01.16,0.508
2015-10-16 02:55:00,1797E-3,5C000400,-0724,0828,12244,030.6,045.5,0.252,757.5,01.16,0.508
2015-10-16 02:56:00,1907E-3,5C000400,-0724,0828,12341,030.6,045.5,0.252,757.4,01.16,0.508
2015-10-16 02:57:00,1841E-3,5C000400,-0724,0829,12222,030.6,045.5,0.252,757.4,01.16,0.508
2015-10-16 02:58:00,2001E-3,5C000400,-0724,0828,12178,030.6,045.5,0.252,757.4,01.16,0.508
2015-10-16 02:59:00,1847E-3,5C000400,-0724,0828,12194,030.6,045.5,0.252,757.4,01.16,0.508
2015-10-16 03:00:00,1816E-3,5C000400,-0724,0829,12305,030.6,045.5,0.252,757.5,01.16,0.508
2015-10-16 03:01:00,2025E-3,5C000400,-0724,0828,12213,030.7,045.5,0.252,757.5,01.16,0.508
2015-10-16 03:02:00,1771E-3,5C000400,-0724,0828,12214,030.7,045.5,0.252,757.5,01.16,0.508
2015-10-16 03:03:00,1844E-3,5C000400,-0724,0827,12184,030.7,045.5,0.252,757.4,01.16,0.508
2015-10-16 03:04:00,1865E-3,5C000400,-0724,0828,12158,030.7,045.5,0.252,757.5,01.16,0.508
2015-10-16 03:05:00,1828E-3,5C000400,-0724,0828,12227,030.8,045.5,0.251,757.5,01.16,0.508
2015-10-16 03:06:00,1807E-3,5C000400,-0724,0828,12256,030.7,045.5,0.251,757.4,01.16,0.508
2015-10-16 03:07:00,1740E-3,5C000400,-0724,0828,12120,030.8,045.5,0.251,757.4,01.16,0.508
2015-10-16 03:08:00,1944E-3,5C000400,-0724,0828,12319,030.8,045.5,0.252,757.4,01.16,0.508
2015-10-16 03:09:00,1827E-3,5C000400,-0724,0828,12183,030.8,045.5,0.252,757.4,01.16,0.508
2015-10-16 03:10:00,1892E-3,5C000400,-0724,0828,12170,030.8,045.5,0.252,757.4,01.16,0.508
2015-10-16 03:11:00,1756E-3,5C000400,-0724,0828,12159,030.7,045.5,0.251,757.5,01.16,0.508
2015-10-16 03:12:00,1823E-3,5C000400,-0724,0828,12172,030.7,045.5,0.251,757.4,01.16,0.508
2015-10-16 03:13:00,1871E-3,5C000400,-0724,0828,12212,030.5,045.5,0.251,757.5,01.16,0.508
2015-10-16 03:14:00,1728E-3,5C000400,-0724,0829,12109,030.4,045.5,0.252,757.5,01.16,0.508
2015-10-16 03:15:00,1815E-3,5C000400,-0724,0828,12235,030.2,045.5,0.251,757.5,01.16,0.508
2015-10-16 03:16:00,1765E-3,5C000400,-0724,0827,12037,030.0,045.5,0.252,757.5,01.16,0.508
2015-10-16 03:17:00,1897E-3,5C000400,-0724,0827,12238,029.9,045.5,0.251,757.5,01.16,0.508
2015-10-16 03:18:00,1747E-3,5C000400,-0724,0828,12212,029.7,045.5,0.252,757.6,01.16,0.508
2015-10-16 03:19:00,1766E-3,5C000400,-0724,0827,12295,029.7,045.5,0.252,757.5,01.16,0.508
2015-10-16 03:20:00,1773E-3,5C000400,-0724,0828,12277,029.8,045.5,0.252,757.5,01.16,0.508
2015-10-16 03:21:00,1910E-3,5C000400,-0724,0829,12183,029.8,045.5,0.252,757.5,01.16,0.508
2015-10-16 03:22:00,1850E-3,5C000400,-0724,0828,12350,029.9,045.5,0.253,757.5,01.16,0.508
2015-10-16 03:23:00,1883E-3,5C000400,-0724,0828,12358,029.9,045.5,0.253,757.5,01.16,0.508
2015-10-16 03:24:00,1885E-3,5C000400,-0724,0828,12148,029.9,045.5,0.253,757.5,01.16,0.508
2015-10-16 03:25:00,1895E-3,5C000400,-0724,0828,12148,030.0,045.5,0.253,757.5,01.16,0.508
2015-10-16 03:26:00,1929E-3,5C000400,-0724,0828,12126,030.0,045.5,0.253,757.5,01.16,0.508
2015-10-16 03:27:00,1761E-3,5C000400,-0724,0828,12268,030.0,045.5,0.253,757.5,01.16,0.508
2015-10-16 03:28:00,1836E-3,5C000400,-0724,0828,12212,030.1,045.5,0.253,757.5,01.16,0.508
2015-10-16 03:29:00,1749E-3,5C000400,-0724,0828,12220,030.1,045.5,0.253,757.4,01.16,0.508
2015-10-16 03:30:00,1821E-3,5C000400,-0724,0828,12212,030.2,045.5,0.253,757.4,01.16,0.508
2015-10-16 03:31:00,1724E-3,5C000400,-0724,0828,12173,030.2,045.5,0.253,757.4,01.16,0.508
2015-10-16 03:32:00,1857E-3,5C000400,-0724,0827,12223,030.2,045.5,0.253,757.4,01.16,0.508
2015-10-16 03:33:00,1715E-3,5C000400,-0724,0828,12227,030.2,045.5,0.253,757.4,01.16,0.508
2015-10-16 03:34:00,1787E-3,5C000400,-0724,0827,12241,030.3,045.5,0.253,757.4,01.16,0.508
2015-10-16 03:35:00,1815E-3,5C000400,-0724,0828,12167,030.3,045.5,0.253,757.4,01.16,0.508
2015-10-16 03:36:00,1829E-3,5C000400,-0724,0828,12190,030.3,045.5,0.253,757.4,01.16,0.508
2015-10-16 03:37:00,1901E-3,5C000400,-0724,0828,12320,030.4,045.5,0.252,757.4,01.16,0.508
2015-10-16 03:38:00,1838E-3,5C000400,-0724,0828,12205,030.4,045.5,0.252,757.4,01.16,0.508
2015-10-16 03:39:00,1785E-3,5C000400,-0724,0828,12304,030.4,045.5,0.252,757.4,01.16,0.508
2015-10-16 03:40:00,1770E-3,5C000400,-0724,0828,12240,030.4,045.5,0.252,757.4,01.16,0.508
2015-10-16 03:41:00,1801E-3,5C000400,-0724,0828,12289,030.4,045.5,0.252,757.4,01.16,0.508
2015-10-16 03:42:00,1715E-3,5C000400,-0724,0828,12246,030.5,045.5,0.252,757.4,01.16,0.508
2015-10-16 03:43:00,1847E-3,5C000400,-0724,0828,12218,030.5,045.5,0.252,757.4,01.16,0.508
2015-10-16 03:44:00,1713E-3,5C000400,-0724,0828,12164,030.5,045.5,0.252,757.4,01.16,0.508
2015-10-16 03:45:00,1929E-3,5C000400,-0724,0829,12287,030.5,045.5,0.252,757.4,01.16,0.508
2015-10-16 03:46:00,1892E-3,5C000400,-0724,0828,12341,030.6,045.5,0.252,757.4,01.16,0.508
2015-10-16 03:47:00,1868E-3,5C000400,-0724,0828,12306,030.6,045.5,0.252,757.4,01.16,0.508
2015-10-16 03:48:00,1828E-3,5C000400,-0724,0828,12246,030.6,045.5,0.252,757.4,01.16,0.508
2015-10-16 03:49:00,1787E-3,5C000400,-0724,0828,12241,030.6,045.5,0.252,757.4,01.16,0.508
2015-10-16 03:50:00,1845E-3,5C000400,-0724,0828,12203,030.6,045.5,0.252,757.4,01.16,0.508
2015-10-16 03:51:00,1877E-3,5C000400,-0724,0828,12202,030.6,045.5,0.251,757.4,01.16,0.508
2015-10-16 03:52:00,1827E-3,5C000400,-0724,0828,12142,030.6,045.5,0.251,757.4,01.16,0.508
2015-10-16 03:53:00,1886E-3,5C000400,-0724,0828,12216,030.5,045.5,0.252,757.4,01.16,0.508
2015-10-16 03:54:00,1943E-3,5C000400,-0724,0828,12204,030.3,045.5,0.252,757.4,01.16,0.508
2015-10-16 03:55:00,1872E-3,5C000400,-0724,0828,12316,030.1,045.5,0.252,757.4,01.16,0.508
2015-10-16 03:56:00,1697E-3,5C000400,-0724,0827,12231,029.9,045.5,0.252,757.4,01.16,0.508
2015-10-16 03:57:00,1812E-3,5C000400,-0724,0828,12127,029.8,045.5,0.252,757.4,01.16,0.508
2015-10-16 03:58:00,1803E-3,5C000400,-0724,0827,11993,029.7,045.5,0.252,757.4,01.16,0.508
2015-10-16 03:59:00,1931E-3,5C000400,-0724,0828,12330,029.6,045.5,0.253,757.4,01.16,0.508
2015-10-16 04:00:00,1911E-3,5C000400,-0724,0827,12202,029.7,045.5,0.253,757.4,01.16,0.508
2015-10-16 04:01:00,1764E-3,5C000400,-0724,0828,12215,029.8,045.5,0.253,757.4,01.16,0.508
2015-10-16 04:02:00,1882E-3,5C000400,-0724,0828,12178,029.8,045.5,0.253,757.4,01.16,0.508
2015-10-16 04:03:00,1796E-3,5C000400,-0724,0828,12195,029.9,045.5,0.252,757.4,01.16,0.508
2015-10-16 04:04:00,1920E-3,5C000400,-0724,0828,12189,029.9,045.5,0.252,757.4,01.16,0.508
2015-10-16 04:05:00,1804E-3,5C000400,-0724,0828,12286,029.9,045.5,0.252,757.4,01.16,0.508
2015-10-16 04:06:00,1921E-3,5C000400,-0724,0828,12161,030.0,045.5,0.252,757.4,01.16,0.508
2015-10-16 04:07:00,1853E-3,5C000400,-0724,0829,12137,030.0,045.5,0.252,757.4,01.16,0.508
2015-10-16 04:08:00,1810E-3,5C000400,-0724,0828,12236,030.1,045.5,0.252,757.4,01.16,0.508
2015-10-16 04:09:00,1805E-3,5C000400,-0724,0828,12335,030.1,045.5,0.252,757.4,01.16,0.508
2015-10-16 04:10:00,1815E-3,5C000400,-0724,0829,12246,030.1,045.5,0.253,757.4,01.16,0.508
2015-10-16 04:11:00,1841E-3,5C000400,-0724,0828,12189,030.1,045.5,0.253,757.4,01.16,0.508
2015-10-16 04:12:00,1904E-3,5C000400,-0724,0828,12226,030.2,045.5,0.253,757.4,01.16,0.508
2015-10-16 04:13:00,1855E-3,5C000400,-0724,0828,12387,030.2,045.5,0.253,757.4,01.16,0.508
2015-10-16 04:14:00,1850E-3,5C000400,-0724,0828,12275,030.3,045.5,0.253,757.4,01.16,0.508
2015-10-16 04:15:00,1853E-3,5C000400,-0724,0828,12123,030.3,045.5,0.253,757.4,01.16,0.508
2015-10-16 04:16:00,1901E-3,5C000400,-0724,0828,12315,030.3,045.5,0.253,757.4,01.16,0.508
2015-10-16 04:17:00,1807E-3,5C000400,-0724,0828,12335,030.4,045.5,0.253,757.4,01.16,0.508
2015-10-16 04:18:00,1779E-3,5C000400,-0724,0828,12216,030.4,045.5,0.252,757.4,01.16,0.508
2015-10-16 04:19:00,1806E-3,5C000400,-0724,0828,12135,030.4,045.5,0.252,757.4,01.16,0.508
2015-10-16 04:20:00,1763E-3,5C000400,-0724,0827,12183,030.4,045.5,0.252,757.4,01.16,0.508